Theta_e
325 323 322 323 323 326 329 331 330 332 330 328 328 327 323 320 317 316 316 317 316 315 318 317 317 317 315 316 317 318 317 314 316 319 326 333 335 334 333 330 325 319 318
321 320 321 321 322 324 326 329 330 330 329 328 330 327 320 315 313 312 313 315 315 316 315 316 314 315 313 314 314 315 313 313 314 312 318 318 323 322 324 323 319 317 316
320 320 320 320 321 320 323 325 327 328 328 327 324 320 318 315 310 311 311 311 313 313 315 313 313 312 311 309 311 312 313 309 311 314 311 311 308 310 317 319 315 315 314
324 322 320 318 318 319 320 323 324 325 325 325 323 323 321 316 313 312 311 311 312 311 311 310 310 312 310 310 309 310 310 311 307 309 311 313 311 304 305 312 312 312 312
324 321 318 318 317 317 317 320 321 322 322 322 322 319 317 313 312 311 312 312 311 311 311 312 312 311 309 310 309 309 309 308 307 306 306 309 310 308 305 303 305 310 310
323 321 319 317 315 315 315 316 317 317 318 317 317 316 314 313 311 311 309 309 309 309 310 310 311 311 310 309 308 309 309 308 308 307 306 305 303 303 303 302 304 304 308
320 318 314 313 313 313 314 314 315 314 315 315 315 314 314 314 313 312 310 309 308 307 308 310 310 309 310 309 308 307 307 307 306 307 305 306 305 305 304 303 302 301 305
318 315 314 313 312 313 313 313 314 313 314 313 313 313 313 310 310 311 310 310 309 308 309 309 309 309 307 307 307 304 304 306 305 306 306 305 305 305 304 302 300 299 301
316 314 313 313 312 312 313 313 313 313 313 313 312 311 311 310 309 310 311 310 311 309 309 307 307 307 306 305 306 303 304 305 304 305 305 303 303 304 305 305 303 299 296
314 313 312 312 313 313 313 313 313 312 312 312 312 311 311 310 309 310 309 310 311 309 308 305 304 305 305 305 305 304 304 304 303 303 304 304 303 304 304 304 304 303 300
312 311 311 312 311 312 311 311 311 311 311 311 311 310 310 309 307 305 307 306 309 310 307 305 304 303 304 305 305 304 303 303 303 304 303 303 304 302 303 303 303 302 302
310 311 310 309 309 309 309 309 311 310 309 308 306 305 304 302 304 302 304 307 308 307 307 304 303 302 302 303 303 302 302 301 301 301 301 300 301 302 303 302 303 302 304
310 308 306 305 305 305 307 306 306 305 306 306 306 306 307 306 304 305 306 307 306 304 303 303 302 302 302 303 303 303 302 301 301 300 300 300 301 301 301 301 301 301 300
308 307 304 304 305 304 304 304 305 307 307 307 307 308 307 307 305 304 304 305 305 305 304 304 303 303 304 304 304 304 304 303 302 301 301 301 300 300 300 300 300 300 299
305 303 304 303 303 304 304 306 305 306 309 306 307 307 308 307 306 305 303 303 303 303 305 305 304 304 304 302 303 303 303 303 303 303 302 302 300 298 298 298 299 299 297
303 301 302 302 302 303 304 305 305 305 307 306 306 307 307 307 305 305 305 304 303 303 304 304 304 304 304 299 297 299 303 304 304 303 303 303 301 300 298 298 298 298 297
303 302 302 302 304 305 306 304 306 306 305 306 304 305 304 305 305 306 306 305 305 306 305 306 305 306 307 301 299 299 303 305 305 305 303 302 301 301 301 300 299 299 300
302 303 304 306 307 307 306 307 306 305 304 305 305 306 306 305 305 305 306 307 306 307 307 307 307 307 307 302 300 300 305 305 306 306 304 303 303 302 298 297 298 299 299
303 303 305 307 308 307 306 306 306 305 304 304 305 306 306 306 306 306 306 307 307 307 307 308 308 308 308 302 299 300 305 305 305 306 305 303 301 299 294 296 296 297 298
302 304 307 308 307 308 308 306 305 305 304 304 305 306 307 307 307 308 307 308 308 308 307 308 309 307 309 303 299 301 305 304 303 305 304 301 300 294 294 296 295 294 296
304 304 304 304 306 308 307 305 305 305 306 307 307 308 309 309 310 310 311 311 310 309 309 308 310 311 310 310 299 297 303 302 302 302 300 301 295 294 293 293 296 295 295
304 305 304 305 307 307 306 304 305 307 308 308 307 308 309 309 309 311 311 311 311 310 308 309 309 310 311 302 301 296 294 298 300 299 299 300 293 292 293 293 293 293 293
304 305 304 304 305 306 307 305 307 308 309 309 308 309 310 310 310 310 310 310 310 310 307 306 308 310 307 304 300 296 294 293 296 299 298 294 293 293 294 294 294 293 295
303 304 304 304 304 306 306 307 307 308 309 309 309 310 310 310 310 309 309 308 309 308 308 306 305 300 302 303 303 304 303 294 297 299 298 296 295 294 294 296 296 296 296
305 305 304 304 305 307 307 308 308 309 308 309 309 309 309 310 310 311 310 309 308 302 300 302 303 301 299 297 293 292 296 297 295 292 296 296 296 295 295 295 295 296 295
306 306 306 307 307 307 308 309 310 310 309 309 308 307 308 310 310 309 308 296 296 296 294 293 296 299 295 291 290 291 291 290 290 293 294 295 294 294 293 293 293 294 294
Wind_Speed
14 12 10 9 8 8 8 8 8 7 6 6 6 5 4 5 5 6 7 7 7 6 5 5 5 5 7 7 8 4 5 6 9 4 0 5 4 4 4 4 5 8 8
16 15 13 12 11 9 9 9 10 9 6 5 2 3 5 5 6 5 7 6 9 8 7 6 7 7 6 8 9 9 4 5 9 6 5 1 6 4 5 5 6 10 8
19 18 16 14 11 10 9 8 9 9 7 6 6 7 7 7 6 5 5 7 9 9 9 7 6 8 6 7 8 7 9 5 6 12 6 3 5 8 3 4 7 9 7
20 19 17 15 13 11 9 9 8 8 7 8 6 7 4 5 6 4 6 6 8 8 7 7 6 11 7 7 6 7 7 7 7 5 7 8 6 5 4 3 5 9 7
21 19 18 16 14 12 11 9 9 8 8 6 5 6 5 8 6 6 7 7 8 8 7 7 8 7 6 7 8 8 9 7 6 7 5 5 3 5 4 7 10 9 7
20 18 17 16 15 14 12 12 11 10 9 8 7 7 9 7 7 6 5 5 6 6 6 7 7 6 6 6 7 8 10 8 8 6 6 7 6 6 6 8 9 11 7
19 19 19 17 16 16 14 13 13 12 10 10 9 9 9 7 6 6 4 5 5 6 6 6 5 6 6 6 6 6 7 8 7 8 6 5 5 5 6 7 9 11 9
19 19 19 17 17 16 15 14 13 12 11 10 10 8 8 6 5 3 4 4 5 6 6 6 6 7 6 6 4 5 5 6 6 8 7 4 5 5 6 7 9 11 9
19 19 18 16 16 15 14 14 13 12 11 11 9 8 6 5 7 5 3 5 5 6 6 6 6 6 6 5 3 6 6 6 6 7 7 6 6 6 5 4 5 7 9
18 17 16 15 14 14 13 13 12 12 12 10 8 8 8 6 5 3 3 5 6 6 6 5 4 5 5 6 5 5 7 7 6 6 7 7 7 5 6 5 5 6 8
17 16 14 14 15 14 14 12 11 11 10 9 8 8 8 7 5 4 3 4 5 6 4 5 5 5 5 5 5 6 6 7 7 6 6 6 5 6 6 6 6 7 8
17 16 15 14 14 13 13 11 9 8 8 7 7 7 8 6 5 5 5 6 5 5 3 4 6 6 6 5 6 7 6 7 7 6 5 6 6 7 6 7 9 9 11
19 17 14 12 10 9 10 10 7 7 6 7 8 6 5 4 4 6 7 6 5 5 5 5 5 6 5 5 5 4 6 5 5 5 6 6 7 7 7 9 9 10 10
18 18 15 13 11 11 8 7 6 2 4 5 6 7 6 5 4 4 5 5 6 6 5 5 4 3 2 2 2 3 4 4 5 5 6 7 8 9 10 10 11 11 13
16 15 15 12 11 7 5 6 7 10 11 10 9 8 8 9 7 5 5 4 4 4 4 4 4 3 3 2 4 4 5 6 6 6 7 7 8 10 10 9 11 13 12
17 14 14 11 9 7 9 10 11 8 8 10 6 6 6 6 5 5 6 6 7 6 5 5 5 5 6 9 5 7 8 8 8 8 7 8 12 5 12 13 13 15 15
18 17 12 10 11 11 13 11 8 7 6 7 6 6 7 8 7 8 8 7 8 7 8 6 7 8 8 10 11 11 10 11 10 9 9 10 8 9 11 13 16 17 16
16 12 8 11 11 8 8 6 6 7 7 7 7 7 8 8 7 7 8 8 7 8 8 7 9 9 8 8 11 11 12 11 12 11 11 11 12 12 10 15 16 17 16
11 9 8 7 7 7 7 7 7 6 5 7 7 7 8 7 6 7 6 7 7 8 8 8 9 9 11 7 10 10 11 13 11 10 11 11 13 7 4 14 18 18 16
5 7 8 7 7 7 5 6 5 7 6 5 5 5 5 6 6 6 7 7 8 9 8 9 9 10 12 9 10 10 10 11 10 10 11 10 11 4 7 13 17 19 18
2 4 2 4 5 6 5 4 6 7 5 4 4 5 6 6 6 7 8 8 9 9 9 10 11 11 10 11 5 9 10 9 10 10 10 10 6 5 9 13 15 16 16
8 6 5 6 5 5 4 4 5 5 5 5 6 5 7 7 7 8 9 10 10 11 11 11 11 9 8 6 3 7 11 10 10 10 10 11 12 10 12 14 15 14 17
6 6 6 4 4 3 5 5 6 5 6 7 8 9 9 10 10 11 12 10 11 10 10 9 9 8 3 4 8 9 9 9 8 10 10 12 14 16 16 14 14 18 13
5 6 7 7 7 7 7 8 8 6 7 9 11 11 12 12 11 9 9 11 11 11 9 9 7 1 5 4 6 5 6 14 12 8 10 15 17 18 17 14 11 11 11
6 6 6 6 7 7 8 10 10 10 11 12 12 12 11 11 10 9 9 9 6 10 7 6 5 4 5 2 6 5 8 8 9 10 12 12 10 10 11 11 12 11 11
7 7 7 7 8 9 10 10 11 12 12 12 10 9 7 7 6 6 3 6 5 2 6 6 4 3 9 3 3 3 5 7 9 10 11 9 9 10 11 11 11 11 12
Wind_Direction
167 173 168 165 166 169 185 174 168 161 166 166 168 145 118 95 85 75 54 58 63 54 37 61 51 52 40 35 19 347 28 20 355 302 167 112 126 47 38 39 37 17 8
176 179 175 176 179 176 179 183 179 180 185 164 126 95 112 95 84 85 63 55 63 60 64 56 67 36 61 33 32 21 1 43 22 4 277 319 162 73 43 14 42 15 356
186 183 181 182 176 177 183 182 179 174 180 144 141 131 131 136 130 124 100 69 67 63 68 56 68 75 37 48 32 26 20 42 61 36 1 321 12 328 91 88 43 9 5
194 183 183 180 175 164 162 160 160 161 159 180 160 171 156 139 90 111 88 92 78 75 66 75 62 65 53 47 45 35 43 12 42 73 65 49 20 357 327 15 32 359 5
192 184 182 174 164 156 155 149 150 151 147 150 158 173 139 137 138 118 120 88 78 72 79 71 70 71 72 73 58 48 38 53 39 42 30 39 89 41 330 321 341 337 347
186 181 176 163 155 153 146 143 139 132 134 131 132 121 134 134 137 133 135 119 110 100 73 79 80 81 81 64 63 60 54 49 41 42 34 32 19 9 348 330 326 329 340
180 179 172 166 158 152 147 139 137 130 129 124 123 126 124 115 125 168 131 137 127 102 78 79 67 85 74 72 70 67 65 57 54 37 35 39 27 359 348 325 335 321 319
179 177 174 164 157 151 147 139 136 133 131 124 120 118 136 127 129 89 120 120 115 108 94 81 84 81 68 68 69 75 65 60 73 53 41 22 29 6 2 350 338 329 325
172 170 171 161 152 150 145 140 138 134 135 131 126 120 104 94 81 105 158 134 112 120 94 84 91 89 79 53 84 65 59 57 46 60 33 10 22 4 343 341 348 333 323
165 168 163 156 149 146 144 140 143 139 136 132 133 118 105 96 98 120 98 94 117 111 110 97 88 88 83 62 29 67 54 49 44 39 31 14 19 329 341 322 309 292 290
166 161 158 149 146 148 146 143 139 139 141 135 121 113 89 74 46 22 108 139 138 139 127 107 96 80 79 69 71 76 50 55 46 32 22 24 8 359 336 330 307 301 298
161 158 153 151 144 148 143 143 135 115 84 89 98 112 114 144 149 164 181 171 149 119 131 117 123 103 81 69 62 54 54 46 38 22 10 3 358 345 339 333 324 307 306
161 146 135 138 132 122 94 91 95 107 131 148 145 143 147 152 146 157 167 158 142 136 141 117 103 86 73 78 73 52 41 39 27 10 353 347 342 338 333 326 319 317 313
154 145 141 138 105 101 97 93 84 92 186 189 183 152 176 195 166 150 167 175 167 149 146 126 121 122 118 104 39 37 16 353 352 339 335 325 321 332 333 321 317 322 314
135 136 130 119 116 116 140 173 194 209 205 199 195 177 177 191 178 148 154 175 197 197 187 184 186 218 241 224 338 335 316 309 312 311 307 311 327 290 282 300 318 312 312
151 144 131 128 137 155 187 189 198 182 189 216 216 158 161 200 172 184 204 193 212 225 222 231 245 249 258 133 212 265 291 299 294 299 312 308 288 314 310 273 290 303 300
150 143 132 141 165 188 195 188 197 176 194 185 198 200 205 215 208 202 220 221 222 226 236 245 261 261 266 190 210 234 262 275 291 293 298 304 319 306 309 314 299 295 295
149 126 147 169 181 178 171 169 175 200 203 205 214 214 200 218 219 221 221 225 230 236 245 247 248 257 262 193 204 221 256 270 274 282 288 296 305 319 329 314 306 304 306
113 131 165 166 157 189 179 194 188 208 203 217 216 217 216 217 219 233 234 236 240 245 251 257 263 267 273 215 209 214 259 261 279 282 282 294 295 302 343 304 306 306 304
87 218 208 180 167 182 172 193 209 194 217 232 230 234 231 239 245 245 249 248 243 251 270 274 269 265 270 262 208 209 264 273 287 286 282 252 267 360 289 300 303 305 309
127 83 95 155 205 151 182 222 225 218 235 252 235 229 242 248 255 259 256 253 254 267 267 271 272 275 283 286 179 202 266 279 296 304 304 306 116 327 299 282 294 305 317
174 190 205 211 177 180 212 244 225 220 259 241 252 247 254 259 263 254 260 258 260 262 266 269 266 269 283 24 353 213 236 297 282 291 297 314 353 306 283 278 291 286 283
204 208 210 180 211 228 259 237 223 220 242 255 249 254 262 261 263 269 270 272 267 263 261 261 269 274 294 280 215 239 245 240 264 289 308 280 268 264 265 264 260 276 278
199 191 194 203 206 210 219 237 248 241 252 261 262 260 258 261 262 261 260 266 265 259 259 258 264 301 260 260 265 246 220 228 234 279 312 302 275 265 265 277 297 309 313
172 183 193 206 213 219 227 235 242 246 249 252 259 265 264 261 271 268 275 283 360 4 350 330 283 280 265 359 18 336 313 330 341 320 297 292 304 309 308 312 312 309 316
193 202 216 230 236 226 233 237 240 245 249 256 258 267 281 282 281 285 306 90 130 194 222 231 274 269 233 57 10 288 271 275 268 292 291 305 311 311 316 314 313 316 317